Weather History for Asheville, NC

Change the Weather History Date:

Thursday, November 8, 2012

  Actual Average Record
Temperature  
Mean Temperature 44 °F 50 °F  
Max Temperature 54 °F 62 °F 78 °F (1980)
Min Temperature 33 °F 38 °F 18 °F (1967)
Degree Days  
Heating Degree Days 21 15  
Month to date heating degree days 146 115  
Since 1 July heating degree days 458 450  
Cooling Degree Days 0 0  
Month to date cooling degree days 0 0  
Year to date cooling degree days 1022 862  
Moisture  
Dew Point 31 °F    
Average Humidity 60    
Maximum Humidity 89    
Minimum Humidity 30    
Precipitation  
Precipitation 0.00 in 0.11 in 1.86 in (1996)
Month to date precipitation 0.34 0.86  
Year to date precipitation 39.77 39.19  
Snow  
Snow 0.00 in 0.00 in T in (1991)
Month to date snowfall 0.0 0.0  
Since 1 July snowfall 0.0 0.0  
Since 1 September snowfall 0.0 0.0  
Snow Depth 0.00 in    
Sea Level Pressure  
Sea Level Pressure 30.12 in    
Wind  
Wind Speed 9 mph (NNW)    
Max Wind Speed 21 mph    
Max Gust Speed 28 mph    
Visibility 10 miles    
Events      
T = Trace of Precipitation, MM = Missing Value Source: NWS Daily Summary

Daily Weather History Graph

Daily Weather History Graph

Search for Another Location

Airport:

Trip Planner

Search our weather history database for the weather conditions in past years. The results will help you decide how hot, cold, wet, or windy it might be!

Date:

Astronomy

Nov. 08, 2012 Rise Set
Actual Time 6:59 AM EST 5:28 PM EST
Civil Twilight 6:32 AM EST 5:55 PM EST
Nautical Twilight 6:01 AM EST 6:25 PM EST
Astronomical Twilight 5:31 AM EST 6:55 PM EST
Moon 1:05 AM EST (11/8) 1:57 PM EST (11/8)
Length of Visible Light 11h 22m
Length of Day
10h 29m
Waning Crescent, 33% of the Moon is Illuminated
Nov 8
Waning Crescent
Nov 13
New
Nov 20
First Quarter
Nov 28
Full
Dec 6
Last Quarter

Hourly Weather History & Observations

Time (EST) Temp. Windchill Dew Point Humidity Pressure Visibility Wind Dir Wind Speed Gust Speed Precip Events Conditions
12:54 AM 41.0 °F 35.8 °F 35.1 °F 79% 30.02 in 10.0 mi North 8.1 mph - N/A   Clear
1:54 AM 39.9 °F 33.9 °F 35.1 °F 83% 30.02 in 10.0 mi NNW 9.2 mph - N/A   Clear
2:54 AM 41.0 °F 34.7 °F 34.0 °F 76% 30.03 in 10.0 mi North 10.4 mph 18.4 mph N/A   Clear
3:54 AM 39.9 °F 33.9 °F 33.1 °F 77% 30.04 in 10.0 mi North 9.2 mph - N/A   Clear
4:54 AM 39.0 °F 33.4 °F 32.0 °F 76% 30.07 in 10.0 mi NNW 8.1 mph - N/A   Clear
5:54 AM 39.9 °F 37.8 °F 33.1 °F 77% 30.09 in 10.0 mi Variable 3.5 mph - N/A   Clear
6:46 AM 39.2 °F 35.9 °F 33.8 °F 81% 30.10 in 10.0 mi Variable 4.6 mph - N/A   Mostly Cloudy
6:54 AM 39.0 °F 35.7 °F 35.1 °F 86% 30.11 in 10.0 mi Variable 4.6 mph - N/A   Mostly Cloudy
7:15 AM 39.2 °F 35.9 °F 35.6 °F 87% 30.10 in 10.0 mi Variable 4.6 mph - N/A   Scattered Clouds
7:54 AM 39.9 °F 34.5 °F 35.1 °F 83% 30.13 in 10.0 mi North 8.1 mph - N/A   Scattered Clouds
8:54 AM 42.1 °F 34.9 °F 35.1 °F 76% 30.13 in 10.0 mi North 13.8 mph 24.2 mph N/A   Clear
9:54 AM 46.0 °F 39.6 °F 34.0 °F 63% 30.14 in 10.0 mi North 15.0 mph - N/A   Clear
10:54 AM 48.9 °F - 33.1 °F 54% 30.14 in 10.0 mi North 16.1 mph 23.0 mph N/A   Clear
11:54 AM 52.0 °F - 30.0 °F 43% 30.12 in 10.0 mi North 12.7 mph 21.9 mph N/A   Clear
12:54 PM 54.0 °F - 28.9 °F 38% 30.10 in 10.0 mi North 15.0 mph 23.0 mph N/A   Clear
1:54 PM 54.0 °F - 28.0 °F 37% 30.11 in 10.0 mi NNW 16.1 mph 24.2 mph N/A   Clear
2:54 PM 54.0 °F - 28.0 °F 37% 30.10 in 10.0 mi NNW 13.8 mph 20.7 mph N/A   Clear
3:54 PM 53.1 °F - 25.0 °F 34% 30.11 in 10.0 mi North 11.5 mph 18.4 mph N/A   Clear
4:54 PM 52.0 °F - 21.9 °F 31% 30.12 in 10.0 mi North 11.5 mph - N/A   Clear
5:54 PM 46.9 °F - 26.1 °F 44% 30.15 in 10.0 mi NNW 5.8 mph - N/A   Clear
6:54 PM 46.0 °F 42.5 °F 28.9 °F 51% 30.16 in 10.0 mi North 6.9 mph - N/A   Clear
7:54 PM 45.0 °F 41.8 °F 32.0 °F 60% 30.17 in 10.0 mi North 5.8 mph - N/A   Clear
8:54 PM 41.0 °F - 32.0 °F 70% 30.19 in 10.0 mi Calm Calm - N/A   Clear
9:54 PM 37.9 °F 34.4 °F 30.9 °F 76% 30.19 in 10.0 mi NNW 4.6 mph - N/A   Clear
10:54 PM 34.0 °F - 30.0 °F 85% 30.19 in 10.0 mi Calm Calm - N/A   Clear
11:54 PM 33.1 °F 26.1 °F 30.0 °F 89% 30.19 in 10.0 mi NNW 8.1 mph - N/A   Clear